User: anonymous   Login
Location: Caltech
(34.1382°N, 118.1253°W)
Time: 07:34:39
(UTC-07:00)
Language:

COSMOS 2428 - Orbit

View from above orbital plane
View from above orbital plane
View from above satellite
View from above satellite

Ground track
Ground track

The orbit data is extracted from the following two-line orbital elements,

1 31792U 07029A   16147.07680778  .00000137  00000-0  10000-3 0  9997
2 31792  70.9399 144.6134 0006556 143.5634 305.4205 14.12382278459412
Epoch (UTC): 26 May 2016 01:50:36
Eccentricity: 0.0006556
inclination: 70.9399°
perigee height: 846 km
apogee height: 856 km
right ascension of ascending node: 144.6134°
argument of perigee: 143.5634°
revolutions per day: 14.12382278
mean anomaly at epoch: 305.4205°
orbit number at epoch: 45941

The dashed part of the orbit path shows where the satellite is in the earth's shadow,  

DLR